Satellite-Ground Cal/Val Site Overpasses Predictions

Prediction of Satellite NPP Overpassing Cal/Val Site: Antarctic Dome C

Ground Cal/Val Site Location: Latitude: -75.10, Longitude: 123.35; Satellite-Ground Site NADIR distance within 100 km.

Table of predicted overpasses for the next 14.0 days since TLE Epoch: 4/14/2017
Interval Starting Time Ending Time Minimum Distance Time Minimum Distance (km)
1 04/16/2017 07:31:11 04/16/2017 07:31:40 04/16/2017 07:31:25 2.51
2 04/19/2017 14:54:38 04/19/2017 14:55:07 04/19/2017 14:54:53 20.48
3 04/20/2017 14:35:57 04/20/2017 14:36:11 04/20/2017 14:36:04 86.60
4 04/21/2017 07:37:29 04/21/2017 07:37:56 04/21/2017 07:37:42 34.40
5 04/22/2017 07:18:44 04/22/2017 07:19:03 04/22/2017 07:18:53 75.73
6 04/24/2017 15:00:59 04/24/2017 15:01:23 04/24/2017 15:01:11 57.44
7 04/25/2017 14:42:08 04/25/2017 14:42:33 04/25/2017 14:42:21 51.64
8 04/26/2017 07:43:50 04/26/2017 07:44:10 04/26/2017 07:44:00 69.68


NCC Satellite Cal/Val Overpasses Prediction Service
